Regional Weather Roundup
Issued by NWS Grand Forks, ND

Home | Current Version | Previous Version | Graphics & Text | Print | Product List | Glossary On
Versions: 1 2 3 4 5 6 7 8 9 10 11 12 13 14 15 16 17 18 19 20 21 22 23 24 25 26 27 28 29 30 31 32 33 34 35 36 37 38 39 40 41 42 43 44 45 46 47 48 49 50
000
ASUS43 KFGF 250831
RWRFGF
PRAIRIE TO PINES  WEATHER ROUNDUP
NATIONAL WEATHER SERVICE EASTERN NORTH DAKOTA/GRAND FORKS ND
300 AM CDT SAT OCT 25 2014

 **SATELLITE DATA USED TO AUGMENT SKY COVER AT AUTOMATED STATIONS**
 *****  WEATHER ACROSS EASTERN NORTH DAKOTA  *****

CITY           SKY/WX    TMP DP  RH WIND       PRES   REMARKS
GRAND FORKS    CLEAR     43  34  70 W8        29.96R
GRAND FRKS AFB CLEAR     47  34  62 NW8       29.97R
GRAND FRKS NWS   N/A     43 N/A N/A W14         N/A
DEVILS LAKE    CLEAR     45  30  57 W14       29.99R
FARGO          CLEAR     45  31  58 W10       30.00R
WAHPETON ARPT  MOSUNNY   43  30  61 W7        30.03R
$$

 ***** WEATHER ACROSS CENTRAL AND WESTERN NORTH DAKOTA  *****

CITY           SKY/WX    TMP DP  RH WIND       PRES   REMARKS
BISMARCK       PTCLDY    39  29  67 CALM      30.09R
MINOT          PTCLDY    40  29  64 SW9       30.04R
JAMESTOWN      CLEAR     43  34  70 NW9       30.04R
MINOT AFB      PTCLDY    38  31  76 W12       30.03R
GARRISON         N/A     41  31  67 W7        30.06R
WILLISTON      CLOUDY    44  29  55 SW5       30.08R
DICKINSON      CLOUDY    47  32  56 W9        30.10R
HETTINGER      MOCLDY    43  32  65 CALM      30.13R
$$

 *****  OTHER AIRPORT OBSERVATIONS IN OUR AREA  *****

CITY           SKY/WX    TMP DP  RH WIND       PRES   REMARKS
WALHALLA       FAIR      46  32  57 W7        29.94S
GRAFTON AIRPOR FAIR      46  34  61 W9        29.95R
VALLEY CITY AR FAIR      43  34  70 NW10      30.03R
CANDO          FAIR      36  32  87 W9        30.01R
CAVALIER APRT  FAIR      45  32  61 W9        29.94R
GWINNER        PTSUNNY   48  32  53 W12       30.06R
SHEYENNE NWR     N/A     37  31  77 W5        29.95S
ROLLA          FAIR      46  28  49 NW16G22   29.98S
 ***** THE ABOVE OBSERVATIONS ARE NON NWS ARE NOT QUALITY
       CONTROLLED AND MAY MIS-REPORT RAIN FOR SNOW...
$$

  *****  WEATHER ACROSS NORTHERN MINNESOTA  *****

CITY           SKY/WX    TMP DP  RH WIND       PRES   REMARKS
FLAG ISLAND    CLEAR     48  36  61 W22G30    29.80R
WARROAD        CLEAR     46  36  66 W14       29.86R
ROSEAU         CLEAR     46  34  61 NW10G17   29.88R
HALLOCK        CLEAR     46  32  57 W12       29.92R
THF RVR FALLS  CLEAR     45  30  57 W9        29.94R
BAUDETTE       CLEAR     47  32  56 W8        29.83R
WASKISH        CLEAR     48  39  71 W14       29.87R
CROOKSTON      CLEAR     45  34  65 NW13      29.97R
STEPHEN NDAWN    N/A     45  34  65 NW6         N/A
GREENBUSH NDAW   N/A     45  32  61 W12         N/A
$$
  *****  WEATHER ACROSS CENTRAL AND WEST MINNESOTA  *****

CITY           SKY/WX    TMP DP  RH WIND       PRES   REMARKS
FOSSTON        CLEAR     36  28  75 SW6       29.96R
BEMIDJI        CLEAR     46  32  57 W12       29.91R
PARK RAPIDS    CLEAR     49  33  54 NW12      29.93R
ELBOW LAKE     FAIR      46  35  66 NW6       30.01R
WADENA         CLEAR     48  34  57 W6        29.96R
DETROIT LAKES  PTCLDY    46  32  57 NW13      29.99R
MOORHEAD       CLEAR     46  32  57 W9        30.02R
FERGUS FALLS   CLEAR     45  28  53 NW3       30.02R
MORRIS MN      MOCLDY    54  36  50 NW10      30.01R
STAPLES        CLEAR     48  34  57 W8        29.95R
$$
  *****  WEATHER ELSEWHERE ACROSS MINNESOTA  *****

CITY           SKY/WX    TMP DP  RH WIND       PRES   REMARKS
DULUTH         CLEAR     53  34  48 W15       29.81R
INTRNTL FALLS  CLEAR     48  33  56 W14       29.79R
ELY            CLEAR     52  30  43 W14G22    29.75S
CLOQUET        CLEAR     52  34  50 W9        29.84S
WHEATON        MOCLDY    52  36  54 W9        30.05R
BRAINERD       CLEAR     52  33  48 W9        29.93R
HIBBING        CLEAR     54  32  43 NW13G26   29.81R
ALEXANDRIA     CLEAR     49  35  58 NW8       30.00R
SAINT CLOUD    CLEAR     58  34  40 W12       29.96R
MINNEAPOLIS    MOCLDY    60  38  43 NW14      29.94R
$$

  *****  WEATHER ACROSS SOUTH DAKOTA  *****

CITY           SKY/WX    TMP DP  RH WIND       PRES   REMARKS
SIOUX FALLS    PTCLDY    50  41  71 CALM      30.05R
BROOKINGS      NOT AVBL
WATERTOWN      CLOUDY    53  38  56 NW6       30.06R
HURON          MOCLDY    51  40  65 N6        30.08R
SISSETON         N/A     57  33  40 NW14      30.04R
ABERDEEN       MOCLDY    53  37  54 NW5       30.07R
MITCHELL       CLEAR     51  39  63 W6        30.08R
PIERRE         PTCLDY    47  36  65 NW6       30.10R
MOBRIDGE       MOCLDY    51  39  63 NW3       30.08R
RAPID CITY     CLEAR     41  31  67 NW9       30.15S
$$

  *****  SOME WEATHER IN NEARBY STATES *****

CITY           SKY/WX    TMP DP  RH WIND       PRES   REMARKS
GLASGOW MT     MOCLDY    45  29  53 N3        30.09S
GREAT FALLS MT PTCLDY    42  39  89 E6        30.04F
CHEYENNE WY    CLEAR     51  23  33 N5        30.25R
SCOTTSBLUFF NE CLEAR     45  32  60 CALM      30.14S
OMAHA NE       CLEAR     50  48  93 CALM      30.03R
DES MOINES IA  CLEAR     53  51  93 CALM      30.00R FOG
DAVENPORT IA   FOG       54  53  97 W6        29.95F VSB 1/4
CHICAGO IL     CLOUDY    57  50  77 SW6       29.89S
EAU CLAIRE WI  CLEAR     48  47  96 SW5       29.89R
LA CROSSE WI   CLEAR     52  51  97 SE6       29.90R FOG
$$

  *****  SOME NATIONAL WEATHER *****

CITY           SKY/WX    TMP DP  RH WIND       PRES   REMARKS
LA GUARDIA NY  MOCLDY    54  39  57 NW10      29.85S
RALEIGH NC     PTCLDY    42  40  92 CALM      29.97F
ATLANTA GA     CLEAR     50  43  77 NW8       30.02S
NEW ORLEANS LA CLEAR     62  52  69 N6        30.09F
OKLAHOMA CITY  CLEAR     61  58  90 S7        30.06S
ALBUQUERQUE NM CLEAR     59  36  42 CALM      30.29S
SALT LAKE CITY CLEAR     59  30  33 SE15      30.08F
LOS ANGELES CA MOCLDY    66  66 100 SW9       30.02R FOG
BOISE ID       MOCLDY    46  45  93 CALM      29.91F FOG
SEATTLE WA     CLOUDY    50  47  89 NW7       29.70F
$$

*** WEATHER ACROSS MANITOBA...SASKATCHEWAN AND ONTARIO ***
                ***ONTARIO***

CITY           SKY/WX    TMP DP  RH WIND       PRES   REMARKS
GERALDTON      CLEAR     48  43  81 W10G17    29.46F
THUNDER BAY    CLEAR     54  36  50 W12       29.61S
SIOUX LOOKOUT  CLOUDY    48  37  66 NW15G41   29.64R
TORONTO        MOCLDY    50  43  76 SW7       29.85F
BIG TROUT LK   LGT RAIN  46  45  93 W15G22    29.25S FOG
PICKLE LAKE    NOT AVBL
DRYDEN         CLOUDY    48  32  53 NW20G35   29.69R
KENORA         CLOUDY    48  32  53 NW15G25   29.77R
$$
                *** MANITOBA***

CITY           SKY/WX    TMP DP  RH WIND       PRES   REMARKS
BRANDON        CLEAR     39  30  70 W16       29.95R
DAUPHIN        CLEAR     41  30  65 W14       29.89R
ISLAND LAKE    LGT RAIN  43  37  81 W18G28    29.54R
PILOT MOUND      N/A     43  32  65 W9          N/A
THE PAS        CLOUDY    39  30  70 W21G26    29.75R
THOMPSON       CLOUDY    36  34  93 W17       29.55R
WINNIPEG       CLEAR     41  30  65 W10       29.88R
LYNN LAKE      FLURRIES  32  28  86 W16G24    29.59R WCI  21
CHURCHILL      FOG       37  37 100 N2        29.35S VSB 1/4
GILLAM         LGT RAIN  41  39  93 W16G23    29.43R
$$
                ***SASKATCHEWAN***

CITY           SKY/WX    TMP DP  RH WIND       PRES   REMARKS
ESTEVAN        CLEAR     34  28  80 W9        30.06R
KINDERSLEY     CLEAR     28  25  86 S7        30.03R WCI  21
LLOYDMINSTER   CLEAR     34  23  64 W14       29.98R WCI  24
PRINCE ALBERT  PTCLDY    37  27  65 W10       29.91R
REGINA         CLEAR     28  27  93 W3        30.05R
YORKTON        CLEAR     37  27  65 W10       29.95R
N. BATTLEFORD  CLEAR     27  21  80 SW5       30.00R WCI  21
LA RONGE       MOCLDY    34  28  80 W10G17    29.82R
SASKATOON      CLEAR     25  23  93 SW9       30.00R WCI  15
SWIFT CURRENT  CLEAR     34  27  75 SW8       30.05R
$$
NOTE: THESE ARE AUTOMATED STATIONS WITH LIMITED QUALITY CONTROL
      "FAIR" INDICATES FEW OR NO CLOUDS BELOW 12,000 FEET WITH NO
      SIGNIFICANT WEATHER AND/OR OBSTRUCTIONS TO VISIBILITY.
      SKY/WX - SKY CONDITION AND SIGNIFICANT WEATHER.
      TMP - AIR TEMPERATURE.    DP   - DEWPOINT TEMPERATURE.
      RH  - RELATIVE HUMIDITY.  PRES - PRESSURE.
      HX  - HEAT INDEX.         WCI  - WIND CHILL INDEX.
$



USA.gov is the U.S. government's official web portal to all federal, state and local government web resources and services.